TimeEST,TemperatureF,Dew PointF,Humidity,Sea Level PressureIn,VisibilityMPH,Wind Direction,Wind SpeedMPH,Gust SpeedMPH,PrecipitationIn,Events,Conditions,WindDirDegrees,DateUTC
12:15 AM,53.6,28.4,38,30.23,10.0,NNW,11.5,21.9,N/A,,Clear,340,2013-11-11 05:15:00
12:35 AM,53.6,28.4,38,30.23,10.0,NNW,11.5,18.4,N/A,,Clear,340,2013-11-11 05:35:00
12:55 AM,51.8,30.2,44,30.23,10.0,NW,9.2,18.4,N/A,,Clear,320,2013-11-11 05:55:00
1:15 AM,51.8,30.2,44,30.23,10.0,NNW,10.4,18.4,N/A,,Clear,330,2013-11-11 06:15:00
1:35 AM,51.8,30.2,44,30.23,10.0,NW,11.5,17.3,N/A,,Clear,320,2013-11-11 06:35:00
1:55 AM,51.8,30.2,44,30.23,10.0,NW,9.2,16.1,N/A,,Clear,320,2013-11-11 06:55:00
2:16 AM,51.8,30.2,44,30.23,10.0,NNW,11.5,20.7,N/A,,Clear,330,2013-11-11 07:16:00
2:35 AM,51.8,30.2,44,30.24,10.0,NW,10.4,23.0,N/A,,Clear,320,2013-11-11 07:35:00
2:55 AM,51.8,30.2,44,30.24,10.0,NW,13.8,21.9,N/A,,Clear,320,2013-11-11 07:55:00
3:15 AM,51.8,30.2,44,30.24,10.0,NW,12.7,24.2,N/A,,Clear,320,2013-11-11 08:15:00
3:35 AM,51.8,30.2,44,30.24,10.0,NW,12.7,16.1,N/A,,Clear,320,2013-11-11 08:35:00
3:55 AM,51.8,30.2,44,30.24,10.0,NNW,10.4,18.4,N/A,,Clear,330,2013-11-11 08:55:00
4:15 AM,51.8,33.8,50,30.25,10.0,NNW,5.8,-,N/A,,Clear,330,2013-11-11 09:15:00
4:35 AM,51.8,33.8,50,30.26,10.0,NNW,4.6,17.3,N/A,,Clear,330,2013-11-11 09:35:00
4:55 AM,51.8,33.8,50,30.26,10.0,NNW,3.5,-,N/A,,Clear,330,2013-11-11 09:55:00
5:15 AM,51.8,32.0,47,30.26,10.0,North,9.2,-,N/A,,Clear,350,2013-11-11 10:15:00
5:35 AM,51.8,32.0,47,30.26,10.0,NNW,10.4,-,N/A,,Clear,340,2013-11-11 10:35:00
5:57 AM,51.8,32.0,47,30.26,10.0,NNW,9.2,21.9,N/A,,Clear,340,2013-11-11 10:57:00
6:16 AM,50.0,33.8,54,30.27,10.0,NNW,6.9,-,N/A,,Clear,340,2013-11-11 11:16:00
6:35 AM,50.0,33.8,54,30.28,10.0,North,4.6,-,N/A,,Clear,350,2013-11-11 11:35:00
6:55 AM,50.0,33.8,54,30.29,10.0,NNW,5.8,-,N/A,,Clear,340,2013-11-11 11:55:00
7:15 AM,50.0,33.8,54,30.30,10.0,Calm,Calm,-,N/A,,Clear,0,2013-11-11 12:15:00
7:35 AM,51.8,33.8,50,30.30,10.0,NNW,6.9,-,N/A,,Clear,330,2013-11-11 12:35:00
7:55 AM,51.8,33.8,50,30.31,10.0,NNW,8.1,-,N/A,,Clear,340,2013-11-11 12:55:00
8:15 AM,53.6,33.8,47,30.31,10.0,North,6.9,-,N/A,,Clear,350,2013-11-11 13:15:00
8:35 AM,53.6,33.8,47,30.32,10.0,NNW,9.2,-,N/A,,Clear,340,2013-11-11 13:35:00
8:55 AM,53.6,33.8,47,30.32,10.0,North,9.2,-,N/A,,Clear,360,2013-11-11 13:55:00
9:15 AM,53.6,33.8,47,30.32,10.0,North,9.2,-,N/A,,Clear,360,2013-11-11 14:15:00
9:35 AM,53.6,33.8,47,30.32,10.0,NE,5.8,-,N/A,,Clear,40,2013-11-11 14:35:00
9:56 AM,53.6,33.8,47,30.32,10.0,North,6.9,-,N/A,,Clear,350,2013-11-11 14:56:00
10:15 AM,53.6,32.0,44,30.32,10.0,NNW,3.5,-,N/A,,Clear,340,2013-11-11 15:15:00
10:35 AM,55.4,30.2,38,30.32,10.0,NW,4.6,-,N/A,,Clear,320,2013-11-11 15:35:00
10:55 AM,55.4,30.2,38,30.31,10.0,West,3.5,-,N/A,,Clear,270,2013-11-11 15:55:00
11:17 AM,55.4,32.0,41,30.31,10.0,Calm,Calm,-,N/A,,Clear,0,2013-11-11 16:17:00
11:35 AM,57.2,32.0,38,30.30,10.0,Calm,Calm,-,N/A,,Clear,0,2013-11-11 16:35:00
11:55 AM,57.2,32.0,38,30.28,10.0,NNW,4.6,-,N/A,,Clear,330,2013-11-11 16:55:00
12:15 PM,57.2,33.8,41,30.27,10.0,NW,5.8,-,N/A,,Clear,320,2013-11-11 17:15:00
12:35 PM,57.2,33.8,41,30.26,10.0,West,8.1,-,N/A,,Clear,280,2013-11-11 17:35:00
12:55 PM,57.2,33.8,41,30.25,10.0,WNW,6.9,-,N/A,,Clear,300,2013-11-11 17:55:00
1:15 PM,57.2,35.6,44,30.25,10.0,North,-9999.0,-,N/A,,Clear,0,2013-11-11 18:15:00
1:35 PM,55.4,35.6,47,30.23,10.0,WNW,5.8,-,N/A,,Clear,300,2013-11-11 18:35:00
1:55 PM,57.2,35.6,44,30.23,10.0,WSW,8.1,-,N/A,,Clear,240,2013-11-11 18:55:00
2:15 PM,57.2,35.6,44,30.22,10.0,WSW,4.6,-,N/A,,Clear,250,2013-11-11 19:15:00
2:35 PM,57.2,35.6,44,30.21,10.0,WSW,8.1,-,N/A,,Clear,240,2013-11-11 19:35:00
2:55 PM,57.2,35.6,44,30.21,10.0,SW,6.9,-,N/A,,Clear,220,2013-11-11 19:55:00
3:15 PM,57.2,35.6,44,30.20,10.0,South,5.8,-,N/A,,Clear,190,2013-11-11 20:15:00
3:35 PM,57.2,37.4,48,30.19,10.0,South,8.1,-,N/A,,Clear,180,2013-11-11 20:35:00
3:55 PM,55.4,39.2,54,30.19,10.0,South,5.8,-,N/A,,Clear,180,2013-11-11 20:55:00
4:15 PM,55.4,39.2,54,30.19,10.0,South,5.8,-,N/A,,Clear,190,2013-11-11 21:15:00
4:35 PM,53.6,39.2,58,30.19,10.0,SW,4.6,-,N/A,,Clear,230,2013-11-11 21:35:00
4:55 PM,51.8,39.2,62,30.20,10.0,West,3.5,-,N/A,,Clear,280,2013-11-11 21:55:00
5:15 PM,50.0,41.0,71,30.20,10.0,SSW,3.5,-,N/A,,Clear,210,2013-11-11 22:15:00
5:35 PM,46.4,41.0,81,30.20,10.0,Calm,Calm,-,N/A,,Clear,0,2013-11-11 22:35:00
5:55 PM,46.4,41.0,81,30.20,10.0,South,4.6,-,N/A,,Clear,180,2013-11-11 22:55:00
6:15 PM,48.2,39.2,71,30.20,10.0,South,6.9,-,N/A,,Clear,180,2013-11-11 23:15:00
6:35 PM,48.2,39.2,71,30.19,10.0,South,8.1,-,N/A,,Clear,180,2013-11-11 23:35:00
6:55 PM,48.2,39.2,71,30.18,10.0,South,5.8,-,N/A,,Clear,180,2013-11-11 23:55:00
7:15 PM,48.2,39.2,71,30.18,10.0,South,6.9,-,N/A,,Clear,180,2013-11-12 00:15:00
7:35 PM,48.2,39.2,71,30.17,10.0,South,6.9,-,N/A,,Clear,180,2013-11-12 00:35:00
7:55 PM,50.0,39.2,66,30.17,10.0,Calm,Calm,-,N/A,,Clear,0,2013-11-12 00:55:00
8:15 PM,48.2,41.0,76,30.16,10.0,SSW,5.8,-,N/A,,Clear,200,2013-11-12 01:15:00
8:35 PM,46.4,41.0,81,30.16,10.0,SSW,5.8,-,N/A,,Clear,200,2013-11-12 01:35:00
8:55 PM,48.2,42.8,82,30.15,10.0,SSW,6.9,-,N/A,,Clear,200,2013-11-12 01:55:00
9:15 PM,50.0,42.8,76,30.15,10.0,SSW,5.8,-,N/A,,Clear,200,2013-11-12 02:15:00
9:35 PM,50.0,42.8,76,30.15,10.0,South,6.9,-,N/A,,Clear,190,2013-11-12 02:35:00
9:55 PM,50.0,42.8,76,30.13,10.0,South,8.1,-,N/A,,Clear,190,2013-11-12 02:55:00
10:15 PM,51.8,42.8,71,30.13,10.0,SSW,9.2,-,N/A,,Clear,200,2013-11-12 03:15:00
10:35 PM,51.8,42.8,71,30.13,10.0,SSW,8.1,-,N/A,,Clear,210,2013-11-12 03:35:00
10:55 PM,51.8,42.8,71,30.11,10.0,SSW,9.2,-,N/A,,Clear,200,2013-11-12 03:55:00
11:15 PM,51.8,42.8,71,30.11,10.0,SSW,8.1,-,N/A,,Clear,200,2013-11-12 04:15:00
11:35 PM,51.8,42.8,71,30.10,10.0,SSW,8.1,-,N/A,,Clear,200,2013-11-12 04:35:00
11:56 PM,51.8,42.8,71,30.10,10.0,SSW,9.2,-,N/A,,Clear,200,2013-11-12 04:56:00